Date_Time,Julian_Date,Latitude,Longitude,Instrument_Depth,U,V,Speed,Direction
(yyyy-mm-dd hh:mn:ss UTC),(JD),(+ deg. North),(+ deg. East),(m),(cm/s),(cm/s),(cm/s),(deg True)
1982-08-20 18:00:00 UTC,2445202.250000,28.7317,-95.2428,0036,-22.29,-13.39,26.0000,239.0000
1982-08-20 18:30:00 UTC,2445202.270833,28.7317,-95.2428,0036,-21.20,-13.25,25.0000,238.0000
1982-08-20 19:00:00 UTC,2445202.291667,28.7317,-95.2428,0036,-21.43,-12.88,25.0000,239.0000
1982-08-20 19:30:00 UTC,2445202.312500,28.7317,-95.2428,0036,-21.43,-12.88,25.0000,239.0000
1982-08-20 20:00:00 UTC,2445202.333333,28.7317,-95.2428,0036,-21.43,-12.88,25.0000,239.0000
1982-08-20 20:30:00 UTC,2445202.354167,28.7317,-95.2428,0036,-21.65,-12.50,25.0000,240.0000
1982-08-20 21:00:00 UTC,2445202.375000,28.7317,-95.2428,0036,-22.29,-13.39,26.0000,239.0000
1982-08-20 21:30:00 UTC,2445202.395833,28.7317,-95.2428,0036,-23.75,-14.84,28.0000,238.0000
1982-08-20 22:00:00 UTC,2445202.416667,28.7317,-95.2428,0036,-26.29,-16.43,31.0000,238.0000
1982-08-20 22:30:00 UTC,2445202.437500,28.7317,-95.2428,0036,-28.29,-17.00,33.0000,239.0000
1982-08-20 23:00:00 UTC,2445202.458333,28.7317,-95.2428,0036,-29.74,-16.48,34.0000,241.0000
1982-08-20 23:30:00 UTC,2445202.479167,28.7317,-95.2428,0036,-31.19,-15.89,35.0000,243.0000
1982-08-21 00:00:00 UTC,2445202.500000,28.7317,-95.2428,0036,-30.90,-16.43,35.0000,242.0000
1982-08-21 00:30:00 UTC,2445202.520833,28.7317,-95.2428,0036,-31.49,-17.45,36.0000,241.0000
1982-08-21 01:00:00 UTC,2445202.541667,28.7317,-95.2428,0036,-32.36,-17.94,37.0000,241.0000
1982-08-21 01:30:00 UTC,2445202.562500,28.7317,-95.2428,0036,-33.55,-17.84,38.0000,242.0000
1982-08-21 02:00:00 UTC,2445202.583333,28.7317,-95.2428,0036,-34.43,-18.31,39.0000,242.0000
1982-08-21 02:30:00 UTC,2445202.604167,28.7317,-95.2428,0036,-34.75,-17.71,39.0000,243.0000
1982-08-21 03:00:00 UTC,2445202.625000,28.7317,-95.2428,0036,-34.44,-16.06,38.0000,245.0000
1982-08-21 03:30:00 UTC,2445202.645833,28.7317,-95.2428,0036,-34.44,-16.06,38.0000,245.0000
1982-08-21 04:00:00 UTC,2445202.666667,28.7317,-95.2428,0036,-33.53,-15.64,37.0000,245.0000
1982-08-21 04:30:00 UTC,2445202.687500,28.7317,-95.2428,0036,-32.89,-14.64,36.0000,246.0000
1982-08-21 05:00:00 UTC,2445202.708333,28.7317,-95.2428,0036,-31.06,-13.83,34.0000,246.0000
1982-08-21 05:30:00 UTC,2445202.729167,28.7317,-95.2428,0036,-29.91,-13.95,33.0000,245.0000
1982-08-21 06:00:00 UTC,2445202.750000,28.7317,-95.2428,0036,-27.86,-13.59,31.0000,244.0000
1982-08-21 06:30:00 UTC,2445202.770833,28.7317,-95.2428,0036,-27.41,-12.20,30.0000,246.0000
1982-08-21 07:00:00 UTC,2445202.791667,28.7317,-95.2428,0036,-24.47,-11.41,27.0000,245.0000
1982-08-21 07:30:00 UTC,2445202.812500,28.7317,-95.2428,0036,-22.07,-11.74,25.0000,242.0000
1982-08-21 08:00:00 UTC,2445202.833333,28.7317,-95.2428,0036,-21.87,-12.12,25.0000,241.0000
1982-08-21 08:30:00 UTC,2445202.854167,28.7317,-95.2428,0036,-20.99,-11.64,24.0000,241.0000
1982-08-21 09:00:00 UTC,2445202.875000,28.7317,-95.2428,0036,-20.12,-11.15,23.0000,241.0000
1982-08-21 09:30:00 UTC,2445202.895833,28.7317,-95.2428,0036,-18.37,-10.18,21.0000,241.0000
1982-08-21 10:00:00 UTC,2445202.916667,28.7317,-95.2428,0036,-17.32,-10.00,20.0000,240.0000
1982-08-21 10:30:00 UTC,2445202.937500,28.7317,-95.2428,0036,-17.32,-10.00,20.0000,240.0000
1982-08-21 11:00:00 UTC,2445202.958333,28.7317,-95.2428,0036,-18.00,-10.82,21.0000,239.0000
1982-08-21 11:30:00 UTC,2445202.979167,28.7317,-95.2428,0036,-18.24,-12.30,22.0000,236.0000
1982-08-21 12:00:00 UTC,2445203.000000,28.7317,-95.2428,0036,-17.57,-13.24,22.0000,233.0000
1982-08-21 12:30:00 UTC,2445203.020833,28.7317,-95.2428,0036,-17.36,-15.09,23.0000,229.0000
1982-08-21 13:00:00 UTC,2445203.041667,28.7317,-95.2428,0036,-18.28,-17.05,25.0000,227.0000
1982-08-21 13:30:00 UTC,2445203.062500,28.7317,-95.2428,0036,-19.02,-17.73,26.0000,227.0000
1982-08-21 14:00:00 UTC,2445203.083333,28.7317,-95.2428,0036,-19.02,-17.73,26.0000,227.0000
1982-08-21 14:30:00 UTC,2445203.104167,28.7317,-95.2428,0036,-19.02,-17.73,26.0000,227.0000
1982-08-21 15:00:00 UTC,2445203.125000,28.7317,-95.2428,0036,-19.32,-17.40,26.0000,228.0000
1982-08-21 15:30:00 UTC,2445203.145833,28.7317,-95.2428,0036,-20.98,-16.99,27.0000,231.0000
1982-08-21 16:00:00 UTC,2445203.166667,28.7317,-95.2428,0036,-20.98,-16.99,27.0000,231.0000
1982-08-21 16:30:00 UTC,2445203.187500,28.7317,-95.2428,0036,-20.49,-16.01,26.0000,232.0000
1982-08-21 17:00:00 UTC,2445203.208333,28.7317,-95.2428,0036,-20.23,-14.69,25.0000,234.0000
1982-08-21 17:30:00 UTC,2445203.229167,28.7317,-95.2428,0036,-18.02,-12.62,22.0000,235.0000
1982-08-21 18:00:00 UTC,2445203.250000,28.7317,-95.2428,0036,-17.20,-12.05,21.0000,235.0000
1982-08-21 18:30:00 UTC,2445203.270833,28.7317,-95.2428,0036,-16.77,-10.89,20.0000,237.0000
1982-08-21 19:00:00 UTC,2445203.291667,28.7317,-95.2428,0036,-17.49,-9.70,20.0000,241.0000
1982-08-21 19:30:00 UTC,2445203.312500,28.7317,-95.2428,0036,-19.47,-7.87,21.0000,248.0000
1982-08-21 20:00:00 UTC,2445203.333333,28.7317,-95.2428,0036,-21.15,-6.06,22.0000,254.0000
1982-08-21 20:30:00 UTC,2445203.354167,28.7317,-95.2428,0036,-20.46,-4.72,21.0000,257.0000
1982-08-21 21:00:00 UTC,2445203.375000,28.7317,-95.2428,0036,-19.63,-3.82,20.0000,259.0000
1982-08-21 21:30:00 UTC,2445203.395833,28.7317,-95.2428,0036,-18.82,-2.64,19.0000,262.0000
1982-08-21 22:00:00 UTC,2445203.416667,28.7317,-95.2428,0036,-19.95,-1.40,20.0000,266.0000
1982-08-21 22:30:00 UTC,2445203.437500,28.7317,-95.2428,0036,-19.97,-1.05,20.0000,267.0000
1982-08-21 23:00:00 UTC,2445203.458333,28.7317,-95.2428,0036,-18.90,-1.99,19.0000,264.0000
1982-08-21 23:30:00 UTC,2445203.479167,28.7317,-95.2428,0036,-19.70,-3.47,20.0000,260.0000
1982-08-22 00:00:00 UTC,2445203.500000,28.7317,-95.2428,0036,-20.46,-4.72,21.0000,257.0000
1982-08-22 00:30:00 UTC,2445203.520833,28.7317,-95.2428,0036,-20.19,-5.79,21.0000,254.0000
1982-08-22 01:00:00 UTC,2445203.541667,28.7317,-95.2428,0036,-19.86,-6.84,21.0000,251.0000
1982-08-22 01:30:00 UTC,2445203.562500,28.7317,-95.2428,0036,-19.33,-8.21,21.0000,247.0000
1982-08-22 02:00:00 UTC,2445203.583333,28.7317,-95.2428,0036,-19.42,-10.33,22.0000,242.0000
1982-08-22 02:30:00 UTC,2445203.604167,28.7317,-95.2428,0036,-20.57,-12.36,24.0000,239.0000
1982-08-22 03:00:00 UTC,2445203.625000,28.7317,-95.2428,0036,-21.20,-13.25,25.0000,238.0000
1982-08-22 03:30:00 UTC,2445203.645833,28.7317,-95.2428,0036,-20.97,-13.62,25.0000,237.0000
1982-08-22 04:00:00 UTC,2445203.666667,28.7317,-95.2428,0036,-20.73,-13.98,25.0000,236.0000
1982-08-22 04:30:00 UTC,2445203.687500,28.7317,-95.2428,0036,-20.97,-13.62,25.0000,237.0000
1982-08-22 05:00:00 UTC,2445203.708333,28.7317,-95.2428,0036,-20.57,-12.36,24.0000,239.0000
1982-08-22 05:30:00 UTC,2445203.729167,28.7317,-95.2428,0036,-19.42,-10.33,22.0000,242.0000
1982-08-22 06:00:00 UTC,2445203.750000,28.7317,-95.2428,0036,-17.98,-8.77,20.0000,244.0000
1982-08-22 06:30:00 UTC,2445203.770833,28.7317,-95.2428,0036,-17.22,-8.03,19.0000,245.0000
1982-08-22 07:00:00 UTC,2445203.791667,28.7317,-95.2428,0036,-15.41,-7.18,17.0000,245.0000
1982-08-22 07:30:00 UTC,2445203.812500,28.7317,-95.2428,0036,-14.50,-6.76,16.0000,245.0000
1982-08-22 08:00:00 UTC,2445203.833333,28.7317,-95.2428,0036,-12.58,-6.14,14.0000,244.0000
1982-08-22 08:30:00 UTC,2445203.854167,28.7317,-95.2428,0036,-12.47,-6.36,14.0000,243.0000
1982-08-22 09:00:00 UTC,2445203.875000,28.7317,-95.2428,0036,-11.68,-5.70,13.0000,244.0000
1982-08-22 09:30:00 UTC,2445203.895833,28.7317,-95.2428,0036,-10.96,-4.88,12.0000,246.0000
1982-08-22 10:00:00 UTC,2445203.916667,28.7317,-95.2428,0036,-10.96,-4.88,12.0000,246.0000
1982-08-22 10:30:00 UTC,2445203.937500,28.7317,-95.2428,0036,-10.79,-5.26,12.0000,244.0000
1982-08-22 11:00:00 UTC,2445203.958333,28.7317,-95.2428,0036,-10.29,-6.18,12.0000,239.0000
1982-08-22 11:30:00 UTC,2445203.979167,28.7317,-95.2428,0036,-9.58,-7.22,12.0000,233.0000
1982-08-22 12:00:00 UTC,2445204.000000,28.7317,-95.2428,0036,-9.66,-8.70,13.0000,228.0000
1982-08-22 12:30:00 UTC,2445204.020833,28.7317,-95.2428,0036,-9.90,-9.90,14.0000,225.0000
1982-08-22 13:00:00 UTC,2445204.041667,28.7317,-95.2428,0036,-11.51,-11.11,16.0000,226.0000
1982-08-22 13:30:00 UTC,2445204.062500,28.7317,-95.2428,0036,-12.43,-11.59,17.0000,227.0000
1982-08-22 14:00:00 UTC,2445204.083333,28.7317,-95.2428,0036,-12.43,-11.59,17.0000,227.0000
1982-08-22 14:30:00 UTC,2445204.104167,28.7317,-95.2428,0036,-12.95,-12.50,18.0000,226.0000
1982-08-22 15:00:00 UTC,2445204.125000,28.7317,-95.2428,0036,-12.50,-12.95,18.0000,224.0000
1982-08-22 15:30:00 UTC,2445204.145833,28.7317,-95.2428,0036,-12.50,-12.95,18.0000,224.0000
1982-08-22 16:00:00 UTC,2445204.166667,28.7317,-95.2428,0036,-12.73,-12.73,18.0000,225.0000
1982-08-22 16:30:00 UTC,2445204.187500,28.7317,-95.2428,0036,-12.95,-12.50,18.0000,226.0000
1982-08-22 17:00:00 UTC,2445204.208333,28.7317,-95.2428,0036,-11.51,-11.11,16.0000,226.0000
1982-08-22 17:30:00 UTC,2445204.229167,28.7317,-95.2428,0036,-11.15,-10.04,15.0000,228.0000
1982-08-22 18:00:00 UTC,2445204.250000,28.7317,-95.2428,0036,-9.81,-8.53,13.0000,229.0000
1982-08-22 18:30:00 UTC,2445204.270833,28.7317,-95.2428,0036,-8.30,-7.22,11.0000,229.0000
1982-08-22 19:00:00 UTC,2445204.291667,28.7317,-95.2428,0036,-8.43,-7.07,11.0000,230.0000
1982-08-22 19:30:00 UTC,2445204.312500,28.7317,-95.2428,0036,-8.29,-5.59,10.0000,236.0000
1982-08-22 20:00:00 UTC,2445204.333333,28.7317,-95.2428,0036,-7.19,-3.51,8.0000,244.0000
1982-08-22 20:30:00 UTC,2445204.354167,28.7317,-95.2428,0036,-7.36,-3.13,8.0000,247.0000
1982-08-22 21:00:00 UTC,2445204.375000,28.7317,-95.2428,0036,-6.44,-2.74,7.0000,247.0000
1982-08-22 21:30:00 UTC,2445204.395833,28.7317,-95.2428,0036,-5.52,-2.34,6.0000,247.0000
1982-08-22 22:00:00 UTC,2445204.416667,28.7317,-95.2428,0036,-4.60,-1.95,5.0000,247.0000
1982-08-22 22:30:00 UTC,2445204.437500,28.7317,-95.2428,0036,-3.68,-1.56,4.0000,247.0000
1982-08-22 23:00:00 UTC,2445204.458333,28.7317,-95.2428,0036,-2.72,-1.27,3.0000,245.0000
1982-08-22 23:30:00 UTC,2445204.479167,28.7317,-95.2428,0036,-1.78,-0.91,2.0000,243.0000
1982-08-23 00:00:00 UTC,2445204.500000,28.7317,-95.2428,0036,-1.75,-0.97,2.0000,241.0000
1982-08-23 00:30:00 UTC,2445204.520833,28.7317,-95.2428,0036,-1.31,-1.51,2.0000,221.0000
1982-08-23 01:00:00 UTC,2445204.541667,28.7317,-95.2428,0036,0.31,-1.98,2.0000,171.0000
1982-08-23 01:30:00 UTC,2445204.562500,28.7317,-95.2428,0036,1.32,-2.70,3.0000,154.0000
1982-08-23 02:00:00 UTC,2445204.583333,28.7317,-95.2428,0036,0.76,-3.93,4.0000,169.0000
1982-08-23 02:30:00 UTC,2445204.604167,28.7317,-95.2428,0036,-0.35,-3.98,4.0000,185.0000
1982-08-23 03:00:00 UTC,2445204.625000,28.7317,-95.2428,0036,-1.12,-4.87,5.0000,193.0000
1982-08-23 03:30:00 UTC,2445204.645833,28.7317,-95.2428,0036,-1.46,-4.78,5.0000,197.0000
1982-08-23 04:00:00 UTC,2445204.666667,28.7317,-95.2428,0036,-1.79,-4.67,5.0000,201.0000
1982-08-23 04:30:00 UTC,2445204.687500,28.7317,-95.2428,0036,-2.19,-4.49,5.0000,206.0000
1982-08-23 05:00:00 UTC,2445204.708333,28.7317,-95.2428,0036,-1.69,-3.63,4.0000,205.0000
1982-08-23 05:30:00 UTC,2445204.729167,28.7317,-95.2428,0036,-0.83,-2.88,3.0000,196.0000
1982-08-23 06:00:00 UTC,2445204.750000,28.7317,-95.2428,0036,-0.57,-2.94,3.0000,191.0000
1982-08-23 06:30:00 UTC,2445204.770833,28.7317,-95.2428,0036,-0.93,-2.85,3.0000,198.0000
1982-08-23 07:00:00 UTC,2445204.791667,28.7317,-95.2428,0036,-0.83,-2.88,3.0000,196.0000
1982-08-23 07:30:00 UTC,2445204.812500,28.7317,-95.2428,0036,0.03,-2.00,2.0000,179.0000
1982-08-23 08:00:00 UTC,2445204.833333,28.7317,-95.2428,0036,0.29,-0.96,1.0000,163.0000
1982-08-23 08:30:00 UTC,2445204.854167,28.7317,-95.2428,0036,1.00,0.05,1.0000,87.0000
1982-08-23 09:00:00 UTC,2445204.875000,28.7317,-95.2428,0036,2.60,1.50,3.0000,60.0000
1982-08-23 09:30:00 UTC,2445204.895833,28.7317,-95.2428,0036,4.10,2.87,5.0000,55.0000
1982-08-23 10:00:00 UTC,2445204.916667,28.7317,-95.2428,0036,4.73,3.69,6.0000,52.0000
1982-08-23 10:30:00 UTC,2445204.937500,28.7317,-95.2428,0036,4.73,3.69,6.0000,52.0000
1982-08-23 11:00:00 UTC,2445204.958333,28.7317,-95.2428,0036,5.03,3.27,6.0000,57.0000
1982-08-23 11:30:00 UTC,2445204.979167,28.7317,-95.2428,0036,5.56,2.25,6.0000,68.0000
1982-08-23 12:00:00 UTC,2445205.000000,28.7317,-95.2428,0036,5.77,1.65,6.0000,74.0000
1982-08-23 12:30:00 UTC,2445205.020833,28.7317,-95.2428,0036,5.80,1.55,6.0000,75.0000
1982-08-23 13:00:00 UTC,2445205.041667,28.7317,-95.2428,0036,5.87,1.25,6.0000,78.0000
1982-08-23 13:30:00 UTC,2445205.062500,28.7317,-95.2428,0036,6.95,0.85,7.0000,83.0000
1982-08-23 14:00:00 UTC,2445205.083333,28.7317,-95.2428,0036,7.00,0.24,7.0000,88.0000
1982-08-23 14:30:00 UTC,2445205.104167,28.7317,-95.2428,0036,6.98,0.49,7.0000,86.0000
1982-08-23 15:00:00 UTC,2445205.125000,28.7317,-95.2428,0036,6.93,0.97,7.0000,82.0000
1982-08-23 15:30:00 UTC,2445205.145833,28.7317,-95.2428,0036,7.88,1.39,8.0000,80.0000
1982-08-23 16:00:00 UTC,2445205.166667,28.7317,-95.2428,0036,7.83,1.66,8.0000,78.0000
1982-08-23 16:30:00 UTC,2445205.187500,28.7317,-95.2428,0036,8.73,2.18,9.0000,76.0000
1982-08-23 17:00:00 UTC,2445205.208333,28.7317,-95.2428,0036,9.27,3.75,10.0000,68.0000
1982-08-23 17:30:00 UTC,2445205.229167,28.7317,-95.2428,0036,10.39,6.00,12.0000,60.0000
1982-08-23 18:00:00 UTC,2445205.250000,28.7317,-95.2428,0036,11.87,7.42,14.0000,58.0000
1982-08-23 18:30:00 UTC,2445205.270833,28.7317,-95.2428,0036,13.86,8.00,16.0000,60.0000
1982-08-23 19:00:00 UTC,2445205.291667,28.7317,-95.2428,0036,15.01,7.98,17.0000,62.0000
1982-08-23 19:30:00 UTC,2445205.312500,28.7317,-95.2428,0036,15.89,8.45,18.0000,62.0000
1982-08-23 20:00:00 UTC,2445205.333333,28.7317,-95.2428,0036,17.66,9.39,20.0000,62.0000
1982-08-23 20:30:00 UTC,2445205.354167,28.7317,-95.2428,0036,18.54,9.86,21.0000,62.0000
1982-08-23 21:00:00 UTC,2445205.375000,28.7317,-95.2428,0036,19.42,10.33,22.0000,62.0000
1982-08-23 21:30:00 UTC,2445205.395833,28.7317,-95.2428,0036,19.42,10.33,22.0000,62.0000
1982-08-23 22:00:00 UTC,2445205.416667,28.7317,-95.2428,0036,20.12,11.15,23.0000,61.0000
1982-08-23 22:30:00 UTC,2445205.437500,28.7317,-95.2428,0036,19.92,11.50,23.0000,60.0000
1982-08-23 23:00:00 UTC,2445205.458333,28.7317,-95.2428,0036,20.99,11.64,24.0000,61.0000
1982-08-23 23:30:00 UTC,2445205.479167,28.7317,-95.2428,0036,20.99,11.64,24.0000,61.0000
1982-08-24 00:00:00 UTC,2445205.500000,28.7317,-95.2428,0036,20.78,12.00,24.0000,60.0000
1982-08-24 00:30:00 UTC,2445205.520833,28.7317,-95.2428,0036,19.92,11.50,23.0000,60.0000
1982-08-24 01:00:00 UTC,2445205.541667,28.7317,-95.2428,0036,19.71,11.85,23.0000,59.0000
1982-08-24 01:30:00 UTC,2445205.562500,28.7317,-95.2428,0036,18.86,11.33,22.0000,59.0000
1982-08-24 02:00:00 UTC,2445205.583333,28.7317,-95.2428,0036,19.05,11.00,22.0000,60.0000
1982-08-24 02:30:00 UTC,2445205.604167,28.7317,-95.2428,0036,18.00,10.82,21.0000,59.0000
1982-08-24 03:00:00 UTC,2445205.625000,28.7317,-95.2428,0036,16.58,11.18,20.0000,56.0000
1982-08-24 03:30:00 UTC,2445205.645833,28.7317,-95.2428,0036,16.18,11.76,20.0000,54.0000
1982-08-24 04:00:00 UTC,2445205.666667,28.7317,-95.2428,0036,15.76,12.31,20.0000,52.0000
1982-08-24 04:30:00 UTC,2445205.687500,28.7317,-95.2428,0036,15.32,12.86,20.0000,50.0000
1982-08-24 05:00:00 UTC,2445205.708333,28.7317,-95.2428,0036,14.86,13.38,20.0000,48.0000
1982-08-24 05:30:00 UTC,2445205.729167,28.7317,-95.2428,0036,14.39,13.89,20.0000,46.0000
1982-08-24 06:00:00 UTC,2445205.750000,28.7317,-95.2428,0036,14.59,15.11,21.0000,44.0000
1982-08-24 06:30:00 UTC,2445205.770833,28.7317,-95.2428,0036,14.32,15.36,21.0000,43.0000
1982-08-24 07:00:00 UTC,2445205.791667,28.7317,-95.2428,0036,14.32,15.36,21.0000,43.0000
1982-08-24 07:30:00 UTC,2445205.812500,28.7317,-95.2428,0036,15.00,16.09,22.0000,43.0000
1982-08-24 08:00:00 UTC,2445205.833333,28.7317,-95.2428,0036,15.69,16.82,23.0000,43.0000
1982-08-24 08:30:00 UTC,2445205.854167,28.7317,-95.2428,0036,16.06,17.84,24.0000,42.0000
1982-08-24 09:00:00 UTC,2445205.875000,28.7317,-95.2428,0036,15.43,18.39,24.0000,40.0000
1982-08-24 09:30:00 UTC,2445205.895833,28.7317,-95.2428,0036,16.36,20.21,26.0000,39.0000
1982-08-24 10:00:00 UTC,2445205.916667,28.7317,-95.2428,0036,18.00,21.45,28.0000,40.0000
1982-08-24 10:30:00 UTC,2445205.937500,28.7317,-95.2428,0036,19.03,21.89,29.0000,41.0000
1982-08-24 11:00:00 UTC,2445205.958333,28.7317,-95.2428,0036,19.03,21.89,29.0000,41.0000
1982-08-24 11:30:00 UTC,2445205.979167,28.7317,-95.2428,0036,18.37,21.13,28.0000,41.0000
1982-08-24 12:00:00 UTC,2445206.000000,28.7317,-95.2428,0036,18.41,19.75,27.0000,43.0000
1982-08-24 12:30:00 UTC,2445206.020833,28.7317,-95.2428,0036,18.76,19.42,27.0000,44.0000
1982-08-24 13:00:00 UTC,2445206.041667,28.7317,-95.2428,0036,18.41,19.75,27.0000,43.0000
1982-08-24 13:30:00 UTC,2445206.062500,28.7317,-95.2428,0036,17.40,19.32,26.0000,42.0000
1982-08-24 14:00:00 UTC,2445206.083333,28.7317,-95.2428,0036,16.73,18.58,25.0000,42.0000
1982-08-24 14:30:00 UTC,2445206.104167,28.7317,-95.2428,0036,16.37,17.55,24.0000,43.0000
1982-08-24 15:00:00 UTC,2445206.125000,28.7317,-95.2428,0036,15.98,16.54,23.0000,44.0000
1982-08-24 15:30:00 UTC,2445206.145833,28.7317,-95.2428,0036,15.56,15.56,22.0000,45.0000
1982-08-24 16:00:00 UTC,2445206.166667,28.7317,-95.2428,0036,14.59,15.11,21.0000,44.0000
1982-08-24 16:30:00 UTC,2445206.187500,28.7317,-95.2428,0036,14.59,15.11,21.0000,44.0000
1982-08-24 17:00:00 UTC,2445206.208333,28.7317,-95.2428,0036,15.11,14.59,21.0000,46.0000
1982-08-24 17:30:00 UTC,2445206.229167,28.7317,-95.2428,0036,15.11,14.59,21.0000,46.0000
1982-08-24 18:00:00 UTC,2445206.250000,28.7317,-95.2428,0036,15.83,15.28,22.0000,46.0000
1982-08-24 18:30:00 UTC,2445206.270833,28.7317,-95.2428,0036,16.26,16.26,23.0000,45.0000
1982-08-24 19:00:00 UTC,2445206.291667,28.7317,-95.2428,0036,16.37,17.55,24.0000,43.0000
1982-08-24 19:30:00 UTC,2445206.312500,28.7317,-95.2428,0036,17.73,19.02,26.0000,43.0000
1982-08-24 20:00:00 UTC,2445206.333333,28.7317,-95.2428,0036,18.76,19.42,27.0000,44.0000
1982-08-24 20:30:00 UTC,2445206.354167,28.7317,-95.2428,0036,19.80,19.80,28.0000,45.0000
1982-08-24 21:00:00 UTC,2445206.375000,28.7317,-95.2428,0036,20.84,21.58,30.0000,44.0000
1982-08-24 21:30:00 UTC,2445206.395833,28.7317,-95.2428,0036,22.23,23.02,32.0000,44.0000
1982-08-24 22:00:00 UTC,2445206.416667,28.7317,-95.2428,0036,23.33,23.33,33.0000,45.0000
1982-08-24 22:30:00 UTC,2445206.437500,28.7317,-95.2428,0036,24.46,23.62,34.0000,46.0000
1982-08-24 23:00:00 UTC,2445206.458333,28.7317,-95.2428,0036,25.18,24.31,35.0000,46.0000
1982-08-24 23:30:00 UTC,2445206.479167,28.7317,-95.2428,0036,25.60,23.87,35.0000,47.0000
1982-08-25 00:00:00 UTC,2445206.500000,28.7317,-95.2428,0036,24.87,23.19,34.0000,47.0000
1982-08-25 00:30:00 UTC,2445206.520833,28.7317,-95.2428,0036,23.40,21.82,32.0000,47.0000
1982-08-25 01:00:00 UTC,2445206.541667,28.7317,-95.2428,0036,22.67,21.14,31.0000,47.0000
1982-08-25 01:30:00 UTC,2445206.562500,28.7317,-95.2428,0036,20.86,20.15,29.0000,46.0000
1982-08-25 02:00:00 UTC,2445206.583333,28.7317,-95.2428,0036,20.51,20.51,29.0000,45.0000
1982-08-25 02:30:00 UTC,2445206.604167,28.7317,-95.2428,0036,19.09,19.09,27.0000,45.0000
1982-08-25 03:00:00 UTC,2445206.625000,28.7317,-95.2428,0036,18.06,18.70,26.0000,44.0000
1982-08-25 03:30:00 UTC,2445206.645833,28.7317,-95.2428,0036,16.37,17.55,24.0000,43.0000
1982-08-25 04:00:00 UTC,2445206.666667,28.7317,-95.2428,0036,15.09,17.36,23.0000,41.0000
1982-08-25 04:30:00 UTC,2445206.687500,28.7317,-95.2428,0036,14.14,16.85,22.0000,40.0000
1982-08-25 05:00:00 UTC,2445206.708333,28.7317,-95.2428,0036,13.78,15.85,21.0000,41.0000
1982-08-25 05:30:00 UTC,2445206.729167,28.7317,-95.2428,0036,14.05,15.61,21.0000,42.0000
1982-08-25 06:00:00 UTC,2445206.750000,28.7317,-95.2428,0036,14.05,15.61,21.0000,42.0000
1982-08-25 06:30:00 UTC,2445206.770833,28.7317,-95.2428,0036,13.38,14.86,20.0000,42.0000
1982-08-25 07:00:00 UTC,2445206.791667,28.7317,-95.2428,0036,13.64,14.63,20.0000,43.0000
1982-08-25 07:30:00 UTC,2445206.812500,28.7317,-95.2428,0036,13.89,14.39,20.0000,44.0000
1982-08-25 08:00:00 UTC,2445206.833333,28.7317,-95.2428,0036,13.64,14.63,20.0000,43.0000
1982-08-25 08:30:00 UTC,2445206.854167,28.7317,-95.2428,0036,13.78,15.85,21.0000,41.0000
1982-08-25 09:00:00 UTC,2445206.875000,28.7317,-95.2428,0036,13.78,15.85,21.0000,41.0000
1982-08-25 09:30:00 UTC,2445206.895833,28.7317,-95.2428,0036,13.78,15.85,21.0000,41.0000
1982-08-25 10:00:00 UTC,2445206.916667,28.7317,-95.2428,0036,13.78,15.85,21.0000,41.0000
1982-08-25 10:30:00 UTC,2445206.937500,28.7317,-95.2428,0036,14.72,16.35,22.0000,42.0000
1982-08-25 11:00:00 UTC,2445206.958333,28.7317,-95.2428,0036,14.72,16.35,22.0000,42.0000
1982-08-25 11:30:00 UTC,2445206.979167,28.7317,-95.2428,0036,14.43,16.60,22.0000,41.0000
1982-08-25 12:00:00 UTC,2445207.000000,28.7317,-95.2428,0036,13.78,15.85,21.0000,41.0000
1982-08-25 12:30:00 UTC,2445207.020833,28.7317,-95.2428,0036,13.64,14.63,20.0000,43.0000
1982-08-25 13:00:00 UTC,2445207.041667,28.7317,-95.2428,0036,14.14,14.14,20.0000,45.0000
1982-08-25 13:30:00 UTC,2445207.062500,28.7317,-95.2428,0036,13.67,13.20,19.0000,46.0000
1982-08-25 14:00:00 UTC,2445207.083333,28.7317,-95.2428,0036,12.73,12.73,18.0000,45.0000
1982-08-25 14:30:00 UTC,2445207.104167,28.7317,-95.2428,0036,11.59,12.43,17.0000,43.0000
1982-08-25 15:00:00 UTC,2445207.125000,28.7317,-95.2428,0036,11.38,12.63,17.0000,42.0000
1982-08-25 15:30:00 UTC,2445207.145833,28.7317,-95.2428,0036,11.59,12.43,17.0000,43.0000
1982-08-25 16:00:00 UTC,2445207.166667,28.7317,-95.2428,0036,11.59,12.43,17.0000,43.0000
1982-08-25 16:30:00 UTC,2445207.187500,28.7317,-95.2428,0036,11.59,12.43,17.0000,43.0000
1982-08-25 17:00:00 UTC,2445207.208333,28.7317,-95.2428,0036,10.71,11.89,16.0000,42.0000
1982-08-25 17:30:00 UTC,2445207.229167,28.7317,-95.2428,0036,10.71,11.89,16.0000,42.0000
1982-08-25 18:00:00 UTC,2445207.250000,28.7317,-95.2428,0036,10.71,11.89,16.0000,42.0000
1982-08-25 18:30:00 UTC,2445207.270833,28.7317,-95.2428,0036,11.15,12.83,17.0000,41.0000
1982-08-25 19:00:00 UTC,2445207.291667,28.7317,-95.2428,0036,11.15,12.83,17.0000,41.0000
1982-08-25 19:30:00 UTC,2445207.312500,28.7317,-95.2428,0036,12.04,13.38,18.0000,42.0000
1982-08-25 20:00:00 UTC,2445207.333333,28.7317,-95.2428,0036,12.96,13.90,19.0000,43.0000
1982-08-25 20:30:00 UTC,2445207.354167,28.7317,-95.2428,0036,13.20,13.67,19.0000,44.0000
1982-08-25 21:00:00 UTC,2445207.375000,28.7317,-95.2428,0036,13.44,13.44,19.0000,45.0000
1982-08-25 21:30:00 UTC,2445207.395833,28.7317,-95.2428,0036,14.14,14.14,20.0000,45.0000
1982-08-25 22:00:00 UTC,2445207.416667,28.7317,-95.2428,0036,14.05,15.61,21.0000,42.0000
1982-08-25 22:30:00 UTC,2445207.437500,28.7317,-95.2428,0036,14.14,16.85,22.0000,40.0000
1982-08-25 23:00:00 UTC,2445207.458333,28.7317,-95.2428,0036,15.10,18.65,24.0000,39.0000
1982-08-25 23:30:00 UTC,2445207.479167,28.7317,-95.2428,0036,16.36,20.21,26.0000,39.0000
1982-08-26 00:00:00 UTC,2445207.500000,28.7317,-95.2428,0036,16.99,20.98,27.0000,39.0000
1982-08-26 00:30:00 UTC,2445207.520833,28.7317,-95.2428,0036,16.62,21.28,27.0000,38.0000
1982-08-26 01:00:00 UTC,2445207.541667,28.7317,-95.2428,0036,16.01,20.49,26.0000,38.0000
1982-08-26 01:30:00 UTC,2445207.562500,28.7317,-95.2428,0036,16.36,20.21,26.0000,39.0000
1982-08-26 02:00:00 UTC,2445207.583333,28.7317,-95.2428,0036,16.71,19.92,26.0000,40.0000
1982-08-26 02:30:00 UTC,2445207.604167,28.7317,-95.2428,0036,17.06,19.62,26.0000,41.0000
1982-08-26 03:00:00 UTC,2445207.625000,28.7317,-95.2428,0036,17.06,19.62,26.0000,41.0000
1982-08-26 03:30:00 UTC,2445207.645833,28.7317,-95.2428,0036,17.73,19.02,26.0000,43.0000
1982-08-26 04:00:00 UTC,2445207.666667,28.7317,-95.2428,0036,17.68,17.68,25.0000,45.0000
1982-08-26 04:30:00 UTC,2445207.687500,28.7317,-95.2428,0036,17.98,17.37,25.0000,46.0000
1982-08-26 05:00:00 UTC,2445207.708333,28.7317,-95.2428,0036,17.98,17.37,25.0000,46.0000
1982-08-26 05:30:00 UTC,2445207.729167,28.7317,-95.2428,0036,17.98,17.37,25.0000,46.0000
1982-08-26 06:00:00 UTC,2445207.750000,28.7317,-95.2428,0036,17.55,16.37,24.0000,47.0000